Вернуться в каталог

DELTA 1 DEB

АктивенSSO
NORAD 10656·DEBRIS·🇺🇸 United States

Запущен Jul 29, 1976 с Vandenberg Space Force Base

Loading…

Ближайшие Пролёты (ближайшие 24 часа)

TLE

СвежийSource: Space-Track

Эпоха: Sep 14, 2026, 09:24 UTC

1 10656U 76077S   26257.39227075 -.00000020  00000-0  18435-3 0  9999
2 10656 101.8754 225.7318 0077483 318.5587 196.6970 12.37129128262745

Отслеживайте DELTA 1 DEB в реальном времени с AllMySat

Download on the App Store